Location: Marcé
(47.5801°N, 0.3280°W)
Time: 05:24:32
(UTC+01:00)

Envisat - Pass Details

Date: 19 October 2021
Orbit: 764 x 766 km, 98.2° (Epoch: 04 December)

Event Time Altitude Azimuth Distance (km) Brightness Sun altitude
Rises 06:03:51 0° 26° (NNE) 3,244 6.8 -24.6°
Reaches altitude 10° 06:06:44 10° 42° (NE) 2,312 6.2 -24.1°
Maximum altitude 06:10:33 21° 91° (E) 1,673 5.5 -23.5°
Drops below altitude 10° 06:14:20 10° 140° (SE) 2,298 5.8 -22.8°
Sets 06:17:10 0° 156° (SSE) 3,218 6.4 -22.4°
